Printer-friendly version

IAU Minor Planet Center

Minor Planet Center

MPEC 2006-X53 : 2005 EE224

The following Minor Planet Electronic Circular may be linked-to from your own Web pages, but must not otherwise be redistributed electronically.


Read MPEC 2006-X52 Read MPEC 2006-X54


M.P.E.C. 2006-X53                                Issued 2006 Dec. 13, 13:01 UT

     The Minor Planet Electronic Circulars contain information on unusual
         minor planets and routine data on comets.  They are published
   on behalf of Commission 20 of the International Astronomical Union by the
          Minor Planet Center, Smithsonian Astrophysical Observatory,
                          Cambridge, MA 02138, U.S.A.

             Prepared using the Tamkin Foundation Computer Network

                              MPC@CFA.HARVARD.EDU
          URL http://cfa-www.harvard.edu/iau/mpc.html  ISSN 1523-6714

                                  2005 EE224

                           Revision to MPEC 2005-F07

Additional Observations:
     K05EM4E 2C2006 11 28.48822305 29 40.162+54 40 23.47         23.0 R EX053568
     K05EM4E 2C2006 11 29.38775605 27 45.131+54 49 46.86                EX053568

Observer details:
568 Mauna Kea.  Observer F. Bernardi.  Measurers F. Bernardi, D. J. Tholen.
    2.24-m University of Hawaii reflector + 2048 CCD.

Orbital elements:
2005 EE224                                               Earth MOID = 0.1199 AU
Epoch 2007 Apr. 10.0 TT = JDT 2454200.5                 MPC
M 294.35456              (2000.0)            P               Q
n   0.42755091     Peri.  208.20329     -0.67751574     +0.72438166
a   1.7450618      Node    20.04522     -0.58537100     -0.42614305
e   0.3733369      Incl.   21.82877     -0.44532372     -0.54191633
P   2.31           H   19.9           G   0.15           U   2
Residuals in seconds of arc
050315 G96  0.0   0.1+    050316 G96  0.3-  0.1+    050409 941  0.1+  0.2+
050315 G96  0.2+  0.1+    050316 G96  0.2-  0.0     050409 941  0.1+  0.3-
050315 G96  0.4+  0.1+    050316 G96  0.3-  0.2+    050409 941  0.1+  0.3-
050315 G96  0.3+  0.1+    050320 448  0.8-  0.1+    050409 941  0.3-  0.6-
050315 G96  0.3+  0.5+    050320 448  0.9-  0.1+    050409 941  0.4-  0.8-
050315 G96  0.1+  0.4+    050320 448  0.8-  0.1-    050413 704  2.3+  0.4+
050315 G96  0.2+  0.4+    050326 941  0.7-  1.2-    050413 704  0.8+  0.9+
050315 G96  0.3+  0.4+    050326 941  0.7-  1.1-    050413 704  0.2+  1.9+
050315 167  2.5-  1.6-    050326 941  0.4-  1.0-    050413 704  0.5+  0.7+
050316 167  0.3-  0.5-    050326 941  0.3-  0.9-    050427 448  0.2-  0.3+
050316 118  0.3+  0.2+    050326 941  0.3-  0.6-    050427 448  0.4-  0.4+
050316 118  0.1-  0.5-    050331 703  0.6-  0.1+    050427 448  0.3-  0.9-
050316 118  0.2+  0.1+    050331 703  0.8+  0.3+    050514 696  0.2-  0.1-
050316 118  0.2+  0.2-    050331 703  0.1+  1.2+    050514 696  0.6-  0.5-
050316 118  0.4-  0.3-    050331 703  0.2+  0.8+    050701 474  0.8+  0.5+
050316 118  0.3+  0.5-    050403 246  0.3+  0.2+    050701 474  0.2-  0.7-
050316 118  0.3+  0.1+    050403 246  0.6+  0.3+    050701 474  0.5+  0.8-
050316 854  0.9+  0.3-    050403 246  0.2+  0.0     061128 568  0.0   0.0
050316 854  0.1-  0.0     050403 246  0.2+  0.4+    061129 568  0.0   0.1+
050316 854  0.0   0.0     050403 246  0.3+  0.4+

Ephemeris:
2005 EE224               a,e,i = 1.75, 0.37, 22                  q = 1.0936
Date    TT    R. A. (2000) Decl.     Delta      r     Elong.  Phase     V
2006 12 11    04 59.52   +56 15.3    1.296    2.187   146.6    14.3    23.0
2006 12 13    04 54.26   +56 22.5    1.292    2.181   146.4    14.5    23.0
2006 12 15    04 48.98   +56 27.2    1.288    2.175   146.0    14.7    23.0
2006 12 17    04 43.71   +56 29.5    1.286    2.169   145.4    14.9    23.0
2006 12 19    04 38.50   +56 29.4    1.284    2.163   144.7    15.2    23.0
2006 12 21    04 33.38   +56 27.0    1.284    2.157   143.8    15.6    23.0
2006 12 23    04 28.38   +56 22.3    1.284    2.151   142.7    16.1    23.0
2006 12 25    04 23.56   +56 15.5    1.286    2.145   141.6    16.6    23.0
2006 12 27    04 18.93   +56 06.7    1.288    2.139   140.3    17.1    23.0
2006 12 29    04 14.52   +55 56.0    1.291    2.132   138.9    17.6    23.0
2006 12 31    04 10.36   +55 43.7    1.295    2.126   137.5    18.2    23.0
2007 01 02    04 06.47   +55 29.8    1.299    2.119   135.9    18.8    23.1
2007 01 04    04 02.85   +55 14.6    1.305    2.113   134.4    19.4    23.1
2007 01 06    03 59.53   +54 58.2    1.311    2.106   132.7    20.1    23.1
2007 01 08    03 56.51   +54 40.8    1.318    2.099   131.1    20.7    23.1
2007 01 10    03 53.79   +54 22.5    1.325    2.092   129.4    21.3    23.2
2007 01 12    03 51.37   +54 03.6    1.334    2.086   127.7    21.9    23.2
2007 01 14    03 49.26   +53 44.1    1.342    2.079   126.0    22.5    23.2
2007 01 16    03 47.46   +53 24.3    1.352    2.072   124.3    23.1    23.2
2007 01 18    03 45.96   +53 04.3    1.361    2.064   122.5    23.7    23.3
2007 01 20    03 44.76   +52 44.1    1.372    2.057   120.8    24.3    23.3
2007 01 22    03 43.85   +52 23.9    1.382    2.050   119.1    24.8    23.3
2007 01 24    03 43.22   +52 03.8    1.393    2.043   117.4    25.3    23.3
2007 01 26    03 42.86   +51 43.9    1.405    2.035   115.7    25.8    23.4
2007 01 28    03 42.77   +51 24.3    1.417    2.028   114.0    26.3    23.4
2007 01 30    03 42.93   +51 05.0    1.429    2.020   112.3    26.8    23.4

Timothy B. Spahr             (C) Copyright 2006 MPC           M.P.E.C. 2006-X53

Read MPEC 2006-X52 Read MPEC 2006-X54


Our Web policy. Index to the CBAT/MPC/ICQ pages.


Valid HTML 4.01!